TimeEST,TemperatureF,Dew PointF,Humidity,Sea Level PressureIn,VisibilityMPH,Wind Direction,Wind SpeedMPH,Gust SpeedMPH,PrecipitationIn,Events,Conditions,WindDirDegrees,DateUTC
12:53 AM,62.1,59.0,90,30.02,10.0,WNW,9.2,-,N/A,,Scattered Clouds,300,2012-12-27 05:53:00
1:53 AM,60.1,55.0,83,30.01,10.0,NW,11.5,-,N/A,,Clear,310,2012-12-27 06:53:00
2:53 AM,57.9,55.0,90,30.01,10.0,NW,5.8,-,N/A,,Clear,310,2012-12-27 07:53:00
3:53 AM,57.0,52.0,83,30.03,10.0,NW,11.5,-,N/A,,Clear,320,2012-12-27 08:53:00
4:53 AM,55.9,52.0,87,30.03,10.0,NW,10.4,-,N/A,,Clear,320,2012-12-27 09:53:00
5:53 AM,55.0,51.1,86,30.04,10.0,NNW,5.8,-,N/A,,Clear,330,2012-12-27 10:53:00
6:53 AM,54.0,51.1,90,30.05,10.0,NW,9.2,-,N/A,,Clear,320,2012-12-27 11:53:00
7:53 AM,54.0,51.1,90,30.08,10.0,NW,8.1,-,N/A,,Clear,310,2012-12-27 12:53:00
8:53 AM,57.9,51.1,78,30.10,10.0,North,8.1,-,N/A,,Clear,350,2012-12-27 13:53:00
9:53 AM,60.1,50.0,69,30.10,10.0,NNW,9.2,-,N/A,,Clear,340,2012-12-27 14:53:00
10:53 AM,62.1,48.0,60,30.09,10.0,WNW,5.8,-,N/A,,Clear,290,2012-12-27 15:53:00
11:53 AM,64.9,46.9,52,30.07,10.0,WNW,3.5,-,N/A,,Clear,300,2012-12-27 16:53:00
12:53 PM,68.0,44.1,42,30.04,10.0,Variable,4.6,-,N/A,,Clear,0,2012-12-27 17:53:00
1:53 PM,70.0,43.0,38,30.02,10.0,WNW,3.5,-,N/A,,Clear,290,2012-12-27 18:53:00
2:53 PM,72.0,42.1,34,30.02,10.0,WNW,4.6,-,N/A,,Clear,300,2012-12-27 19:53:00
3:53 PM,72.0,43.0,35,30.02,10.0,NW,5.8,-,N/A,,Clear,320,2012-12-27 20:53:00
4:53 PM,70.0,46.0,42,30.03,10.0,NW,3.5,-,N/A,,Clear,320,2012-12-27 21:53:00
5:53 PM,66.0,46.9,50,30.05,10.0,Calm,Calm,-,N/A,,Clear,0,2012-12-27 22:53:00
6:53 PM,64.0,50.0,60,30.05,10.0,Calm,Calm,-,N/A,,Clear,0,2012-12-27 23:53:00
7:53 PM,61.0,50.0,67,30.07,10.0,WNW,3.5,-,N/A,,Clear,300,2012-12-28 00:53:00
8:53 PM,59.0,48.9,69,30.08,10.0,Calm,Calm,-,N/A,,Clear,0,2012-12-28 01:53:00
9:53 PM,55.9,48.0,75,30.09,10.0,North,3.5,-,N/A,,Clear,350,2012-12-28 02:53:00
10:53 PM,55.9,46.0,69,30.09,10.0,Calm,Calm,-,N/A,,Clear,0,2012-12-28 03:53:00
11:53 PM,55.9,46.0,69,30.08,10.0,North,3.5,-,N/A,,Clear,350,2012-12-28 04:53:00